DAH365 DAAG-DTTA

Flight info

Callsign DAH365
Flight time 0h 57m
Altitude 35000
Route BJA1C BJA UA411 MORJA UM978 KEMIR UA411 TUC
Aircraft A21N/M-SDE2E3FGHIRWXY/LB1

Departure

Time 2026-04-28 18:55
Airport Houari Boumediene Airport (DAAG)

Arrival

Time 2026-04-28 19:52
Airport Tunis Carthage International Airport (DTTA)
Time Latitude Longitude Altitude Speed Heading
2026-04-28 18:30 36.69722 3.20957 97 ft 0 kts 299°
2026-04-28 18:43 36.69721 3.20959 97 ft 1 kts 299°
2026-04-28 18:44 36.69714 3.20974 97 ft 3 kts 292°
2026-04-28 18:44 36.69708 3.21018 97 ft 3 kts 265°
2026-04-28 18:44 36.69712 3.21043 97 ft 3 kts 250°
2026-04-28 18:45 36.69721 3.21066 97 ft 3 kts 238°
2026-04-28 18:45 36.69732 3.21083 97 ft 3 kts 229°
2026-04-28 18:45 36.69748 3.21102 97 ft 3 kts 219°
2026-04-28 18:45 36.69764 3.21117 97 ft 3 kts 211°
2026-04-28 18:46 36.69768 3.21120 97 ft 0 kts 210°
2026-04-28 18:48 36.69756 3.21111 97 ft 4 kts 210°
2026-04-28 18:48 36.69716 3.21082 97 ft 9 kts 210°
2026-04-28 18:48 36.69654 3.21036 97 ft 10 kts 210°
2026-04-28 18:49 36.69592 3.21007 97 ft 10 kts 177°
2026-04-28 18:49 36.69544 3.21022 97 ft 11 kts 161°
2026-04-28 18:49 36.69446 3.21066 97 ft 12 kts 160°
2026-04-28 18:49 36.69373 3.21129 97 ft 13 kts 123°
2026-04-28 18:50 36.69352 3.21230 97 ft 14 kts 91°
2026-04-28 18:50 36.69361 3.21336 97 ft 15 kts 83°
2026-04-28 18:50 36.69372 3.21475 97 ft 16 kts 84°
2026-04-28 18:50 36.69382 3.21597 97 ft 18 kts 84°
2026-04-28 18:51 36.69394 3.21747 97 ft 17 kts 84°
2026-04-28 18:51 36.69406 3.21891 97 ft 16 kts 84°
2026-04-28 18:51 36.69410 3.21965 97 ft 14 kts 94°
2026-04-28 18:51 36.69435 3.22073 97 ft 12 kts 45°
2026-04-28 18:52 36.69484 3.22148 97 ft 9 kts 54°
2026-04-28 18:52 36.69504 3.22184 97 ft 0 kts 54°
2026-04-28 18:53 36.69520 3.22211 97 ft 15 kts 54°
2026-04-28 18:54 36.69704 3.22522 97 ft 77 kts 53°
2026-04-28 18:54 36.70032 3.23075 97 ft 132 kts 54°
2026-04-28 18:54 36.70439 3.23764 146 ft 165 kts 53°
2026-04-28 18:54 36.70874 3.24494 479 ft 176 kts 54°
2026-04-28 18:55 36.71574 3.25674 1104 ft 190 kts 55°
2026-04-28 18:55 36.72082 3.26555 1590 ft 198 kts 58°
2026-04-28 18:55 36.72634 3.28453 2495 ft 210 kts 88°
2026-04-28 18:55 36.72214 3.30267 3005 ft 232 kts 120°
2026-04-28 18:56 36.71370 3.32059 3705 ft 246 kts 119°
2026-04-28 18:56 36.70620 3.34024 4541 ft 256 kts 114°
2026-04-28 18:56 36.69967 3.36169 5554 ft 259 kts 110°
2026-04-28 18:56 36.69426 3.38261 6552 ft 261 kts 109°
2026-04-28 18:57 36.69006 3.40051 7364 ft 262 kts 108°
2026-04-28 18:57 36.68491 3.42640 8434 ft 264 kts 103°
2026-04-28 18:57 36.68095 3.44872 9214 ft 268 kts 107°
2026-04-28 18:57 36.67582 3.47161 9893 ft 279 kts 108°
2026-04-28 18:58 36.67069 3.49561 10549 ft 292 kts 108°
2026-04-28 18:58 36.66600 3.51845 11122 ft 303 kts 108°
2026-04-28 18:58 36.66115 3.54297 11578 ft 319 kts 107°
2026-04-28 18:58 36.65597 3.57089 11751 ft 347 kts 103°
2026-04-28 18:59 36.65300 3.60192 11937 ft 372 kts 95°
2026-04-28 18:59 36.65323 3.63494 12366 ft 387 kts 90°
2026-04-28 18:59 36.65474 3.66827 12901 ft 397 kts 89°
2026-04-28 18:59 36.65650 3.70300 13519 ft 404 kts 89°
2026-04-28 19:00 36.65827 3.73790 14183 ft 408 kts 89°
2026-04-28 19:00 36.66008 3.77287 14889 ft 410 kts 89°
2026-04-28 19:00 36.66186 3.80817 15601 ft 412 kts 89°
2026-04-28 19:00 36.66362 3.84390 16257 ft 415 kts 89°
2026-04-28 19:01 36.66536 3.87994 16868 ft 418 kts 89°
2026-04-28 19:01 36.66711 3.91645 17454 ft 422 kts 89°
2026-04-28 19:01 36.66885 3.95289 18007 ft 425 kts 89°
2026-04-28 19:01 36.67060 3.98976 18539 ft 429 kts 89°
2026-04-28 19:02 36.67231 4.02697 19068 ft 432 kts 89°
2026-04-28 19:02 36.67406 4.06451 19571 ft 434 kts 88°
2026-04-28 19:02 36.67583 4.10221 20043 ft 438 kts 88°
2026-04-28 19:02 36.67760 4.14012 20490 ft 441 kts 88°
2026-04-28 19:03 36.67936 4.17793 20915 ft 444 kts 88°
2026-04-28 19:03 36.68096 4.21645 21403 ft 444 kts 87°
2026-04-28 19:03 36.68253 4.25493 21816 ft 447 kts 86°
2026-04-28 19:03 36.68431 4.29380 22129 ft 452 kts 85°
2026-04-28 19:04 36.68616 4.33312 22473 ft 455 kts 85°
2026-04-28 19:04 36.68798 4.37194 22823 ft 458 kts 85°
2026-04-28 19:04 36.68983 4.41152 23168 ft 459 kts 85°
2026-04-28 19:04 36.69169 4.45179 23528 ft 461 kts 85°
2026-04-28 19:05 36.69346 4.49115 23928 ft 461 kts 85°
2026-04-28 19:05 36.69532 4.53083 24305 ft 462 kts 86°
2026-04-28 19:05 36.69727 4.57093 24546 ft 466 kts 87°
2026-04-28 19:05 36.69916 4.61118 24756 ft 468 kts 85°
2026-04-28 19:06 36.70194 4.65167 24979 ft 469 kts 87°
2026-04-28 19:06 36.70287 4.67861 25060 ft 471 kts 88°
2026-04-28 19:06 36.69043 4.72496 25562 ft 442 kts 129°
2026-04-28 19:06 36.67568 4.75879 26262 ft 440 kts 110°
2026-04-28 19:07 36.67045 4.79652 26434 ft 449 kts 91°
2026-04-28 19:07 36.67378 4.83491 26520 ft 458 kts 81°
2026-04-28 19:07 36.67947 4.87416 26596 ft 465 kts 79°
2026-04-28 19:07 36.68515 4.91427 26672 ft 473 kts 80°
2026-04-28 19:08 36.69043 4.95492 26747 ft 480 kts 81°
2026-04-28 19:08 36.69534 4.99653 26823 ft 487 kts 82°
2026-04-28 19:08 36.69981 5.03833 26910 ft 493 kts 83°
2026-04-28 19:08 36.70399 5.08043 27055 ft 497 kts 82°
2026-04-28 19:09 36.71006 5.12291 27244 ft 499 kts 79°
2026-04-28 19:09 36.71635 5.16564 27415 ft 501 kts 79°
2026-04-28 19:09 36.72232 5.20848 27603 ft 503 kts 80°
2026-04-28 19:09 36.72791 5.25154 27828 ft 505 kts 81°
2026-04-28 19:10 36.73338 5.29541 28084 ft 506 kts 81°
2026-04-28 19:10 36.73872 5.33879 28340 ft 507 kts 81°
2026-04-28 19:10 36.74389 5.38161 28594 ft 508 kts 81°
2026-04-28 19:10 36.74906 5.42517 28845 ft 509 kts 81°
2026-04-28 19:11 36.75418 5.46901 29095 ft 510 kts 82°
2026-04-28 19:11 36.75918 5.51264 29344 ft 511 kts 82°
2026-04-28 19:11 36.76414 5.55670 29592 ft 511 kts 82°
2026-04-28 19:11 36.76901 5.60059 29838 ft 512 kts 82°
2026-04-28 19:12 36.77382 5.64461 30083 ft 513 kts 82°
2026-04-28 19:12 36.77856 5.68871 30334 ft 513 kts 82°
2026-04-28 19:12 36.78324 5.73260 30588 ft 513 kts 82°
2026-04-28 19:12 36.78795 5.77679 30852 ft 513 kts 82°
2026-04-28 19:13 36.79268 5.82045 31112 ft 514 kts 83°
2026-04-28 19:13 36.79740 5.86517 31385 ft 513 kts 83°
2026-04-28 19:13 36.80047 5.90896 31643 ft 513 kts 88°
2026-04-28 19:13 36.80179 5.95351 31918 ft 513 kts 89°
2026-04-28 19:14 36.80273 5.99777 32194 ft 513 kts 89°
2026-04-28 19:14 36.80362 6.04242 32469 ft 512 kts 89°
2026-04-28 19:14 36.80452 6.08678 32738 ft 512 kts 89°
2026-04-28 19:14 36.80543 6.13091 33002 ft 511 kts 89°
2026-04-28 19:15 36.80634 6.17479 33261 ft 511 kts 89°
2026-04-28 19:15 36.80729 6.21912 33517 ft 511 kts 89°
2026-04-28 19:15 36.80825 6.26319 33768 ft 510 kts 89°
2026-04-28 19:15 36.80892 6.29339 33948 ft 510 kts 89°
2026-04-28 19:16 36.81021 6.35181 34295 ft 509 kts 89°
2026-04-28 19:16 36.81117 6.39578 34540 ft 508 kts 89°
2026-04-28 19:16 36.81214 6.43993 34825 ft 506 kts 89°
2026-04-28 19:16 36.81311 6.48367 34944 ft 505 kts 89°
2026-04-28 19:17 36.81503 6.57112 34989 ft 504 kts 89°
2026-04-28 19:17 36.81691 6.65807 34992 ft 504 kts 89°
2026-04-28 19:18 36.81877 6.74548 34993 ft 504 kts 89°
2026-04-28 19:18 36.82057 6.83306 34993 ft 505 kts 89°
2026-04-28 19:19 36.82232 6.92075 34993 ft 506 kts 89°
2026-04-28 19:19 36.82402 7.00844 34993 ft 505 kts 89°
2026-04-28 19:20 36.82563 7.09593 34992 ft 507 kts 89°
2026-04-28 19:20 36.82718 7.18330 34992 ft 507 kts 89°
2026-04-28 19:21 36.82868 7.27194 34993 ft 507 kts 89°
2026-04-28 19:21 36.83006 7.35974 34992 ft 509 kts 89°
2026-04-28 19:22 36.83123 7.43376 34993 ft 509 kts 89°
2026-04-28 19:22 36.83272 7.53628 34907 ft 506 kts 88°
2026-04-28 19:23 36.83392 7.62383 34878 ft 506 kts 88°
2026-04-28 19:23 36.83515 7.71186 34875 ft 506 kts 88°
2026-04-28 19:24 36.83630 7.79930 34875 ft 507 kts 88°
2026-04-28 19:24 36.83637 7.88719 34875 ft 507 kts 90°
2026-04-28 19:25 36.83607 7.94611 34875 ft 507 kts 89°
2026-04-28 19:25 36.83574 8.06180 34878 ft 507 kts 89°
2026-04-28 19:26 36.83568 8.15001 34878 ft 507 kts 89°
2026-04-28 19:26 36.83569 8.23747 34851 ft 507 kts 90°
2026-04-28 19:27 36.83535 8.28181 34639 ft 507 kts 90°
2026-04-28 19:27 36.83540 8.32560 34391 ft 505 kts 89°
2026-04-28 19:27 36.83558 8.36937 34140 ft 502 kts 89°
2026-04-28 19:27 36.83615 8.41215 33895 ft 498 kts 88°
2026-04-28 19:28 36.83401 8.45344 33740 ft 488 kts 98°
2026-04-28 19:28 36.83479 8.49366 34886 ft 458 kts 88°
2026-04-28 19:28 36.83507 8.53296 35616 ft 447 kts 89°
2026-04-28 19:28 36.83524 8.57169 35633 ft 454 kts 89°
2026-04-28 19:29 36.83537 8.61183 35104 ft 473 kts 89°
2026-04-28 19:29 36.83546 8.63970 34556 ft 487 kts 89°
2026-04-28 19:29 36.83065 8.69632 33411 ft 494 kts 105°
2026-04-28 19:29 36.82059 8.73740 32569 ft 497 kts 109°
2026-04-28 19:30 36.81038 8.77383 31800 ft 498 kts 111°
2026-04-28 19:30 36.79828 8.81359 30969 ft 496 kts 112°
2026-04-28 19:30 36.78604 8.85392 30115 ft 495 kts 111°
2026-04-28 19:30 36.77412 8.89390 29267 ft 492 kts 111°
2026-04-28 19:31 36.76286 8.93455 28394 ft 491 kts 106°
2026-04-28 19:31 36.75673 8.97573 27787 ft 485 kts 94°
2026-04-28 19:31 36.75954 9.01725 27134 ft 481 kts 77°
2026-04-28 19:31 36.76849 9.05722 26540 ft 475 kts 73°
2026-04-28 19:32 36.77777 9.09714 25880 ft 472 kts 74°
2026-04-28 19:32 36.78582 9.13614 25195 ft 467 kts 76°
2026-04-28 19:32 36.79133 9.17563 24451 ft 466 kts 86°
2026-04-28 19:32 36.79140 9.21594 23864 ft 461 kts 91°
2026-04-28 19:33 36.79017 9.25554 23264 ft 456 kts 92°
2026-04-28 19:33 36.78888 9.29503 22671 ft 452 kts 92°
2026-04-28 19:33 36.78771 9.33402 22102 ft 448 kts 92°
2026-04-28 19:33 36.78674 9.37259 21532 ft 443 kts 91°
2026-04-28 19:34 36.78769 9.41097 20815 ft 439 kts 91°
2026-04-28 19:34 36.78612 9.44867 20203 ft 434 kts 94°
2026-04-28 19:34 36.78469 9.48549 19654 ft 429 kts 91°
2026-04-28 19:34 36.78438 9.52263 19046 ft 426 kts 87°
2026-04-28 19:35 36.78699 9.55908 18446 ft 416 kts 82°
2026-04-28 19:35 36.79052 9.59430 17848 ft 406 kts 81°
2026-04-28 19:35 36.79412 9.62883 17246 ft 397 kts 81°
2026-04-28 19:35 36.79754 9.66265 16645 ft 389 kts 81°
2026-04-28 19:36 36.80081 9.69557 16050 ft 383 kts 81°
2026-04-28 19:36 36.80409 9.72866 15443 ft 378 kts 81°
2026-04-28 19:36 36.80732 9.76114 14841 ft 374 kts 81°
2026-04-28 19:36 36.81051 9.79283 14248 ft 371 kts 81°
2026-04-28 19:37 36.81369 9.82440 13650 ft 366 kts 81°
2026-04-28 19:37 36.81574 9.84521 13250 ft 363 kts 82°
2026-04-28 19:37 36.82035 9.88642 12448 ft 356 kts 81°
2026-04-28 19:37 36.82431 9.91667 11849 ft 352 kts 80°
2026-04-28 19:38 36.82765 9.94698 11268 ft 347 kts 81°
2026-04-28 19:38 36.83074 9.97648 11043 ft 344 kts 81°
2026-04-28 19:38 36.83494 10.00600 10957 ft 343 kts 71°
2026-04-28 19:38 36.84596 10.03110 10944 ft 322 kts 48°
2026-04-28 19:39 36.86248 10.04909 10856 ft 306 kts 34°
2026-04-28 19:39 36.87981 10.06391 10623 ft 298 kts 31°
2026-04-28 19:39 36.89676 10.07799 10335 ft 294 kts 31°
2026-04-28 19:39 36.91365 10.09193 10007 ft 290 kts 31°
2026-04-28 19:40 36.93064 10.10589 9635 ft 288 kts 31°
2026-04-28 19:40 36.94716 10.11945 9245 ft 287 kts 31°
2026-04-28 19:40 36.96387 10.13314 8838 ft 287 kts 31°
2026-04-28 19:40 36.98047 10.14667 8589 ft 280 kts 31°
2026-04-28 19:41 36.99634 10.15959 8487 ft 268 kts 31°
2026-04-28 19:41 37.01179 10.17216 8294 ft 259 kts 31°
2026-04-28 19:41 37.02665 10.18411 8100 ft 250 kts 29°
2026-04-28 19:41 37.04257 10.19164 7873 ft 240 kts 13°
2026-04-28 19:42 37.05844 10.19638 7633 ft 235 kts 11°
2026-04-28 19:42 37.07439 10.20108 7324 ft 232 kts 11°
2026-04-28 19:42 37.08988 10.20561 6998 ft 230 kts 11°
2026-04-28 19:42 37.10031 10.20861 6744 ft 228 kts 11°
2026-04-28 19:43 37.12084 10.21434 6144 ft 227 kts 11°
2026-04-28 19:43 37.13620 10.21847 5699 ft 226 kts 11°
2026-04-28 19:43 37.15161 10.22250 5282 ft 226 kts 11°
2026-04-28 19:43 37.16691 10.22638 4962 ft 224 kts 11°
2026-04-28 19:44 37.18213 10.23053 4611 ft 223 kts 19°
2026-04-28 19:44 37.19472 10.24105 4132 ft 222 kts 51°
2026-04-28 19:44 37.20093 10.25853 3678 ft 217 kts 85°
2026-04-28 19:44 37.19902 10.27681 3303 ft 209 kts 109°
2026-04-28 19:45 37.19437 10.29378 3079 ft 205 kts 115°
2026-04-28 19:45 37.18553 10.30712 2991 ft 198 kts 146°
2026-04-28 19:45 37.17311 10.31395 2946 ft 196 kts 173°
2026-04-28 19:45 37.15963 10.31268 3105 ft 193 kts 181°
2026-04-28 19:46 37.14631 10.31027 2995 ft 197 kts 191°
2026-04-28 19:46 37.13299 10.30580 3010 ft 196 kts 193°
2026-04-28 19:46 37.11962 10.30156 2997 ft 197 kts 192°
2026-04-28 19:46 37.10625 10.29749 2992 ft 197 kts 191°
2026-04-28 19:47 37.09278 10.29353 2999 ft 198 kts 191°
2026-04-28 19:47 37.07941 10.28969 3008 ft 198 kts 191°
2026-04-28 19:47 37.06616 10.28595 3005 ft 198 kts 191°
2026-04-28 19:47 37.05269 10.28219 3007 ft 198 kts 191°
2026-04-28 19:48 37.03918 10.27844 3006 ft 198 kts 191°
2026-04-28 19:48 37.02601 10.27481 3005 ft 197 kts 191°
2026-04-28 19:48 37.01267 10.27114 2934 ft 196 kts 191°
2026-04-28 19:48 36.99933 10.26748 2639 ft 195 kts 191°
2026-04-28 19:49 36.98606 10.26384 2378 ft 196 kts 190°
2026-04-28 19:49 36.97282 10.26021 2114 ft 195 kts 190°
2026-04-28 19:49 36.95972 10.25662 1888 ft 192 kts 190°
2026-04-28 19:49 36.94699 10.25313 1632 ft 180 kts 189°
2026-04-28 19:50 36.92671 10.24760 1208 ft 157 kts 188°
2026-04-28 19:50 36.91562 10.24459 988 ft 156 kts 188°
2026-04-28 19:50 36.90507 10.24172 793 ft 151 kts 188°
2026-04-28 19:51 36.89573 10.23919 607 ft 150 kts 189°
2026-04-28 19:51 36.88542 10.23635 428 ft 146 kts 189°
2026-04-28 19:51 36.87570 10.23372 242 ft 143 kts 189°
2026-04-28 19:51 36.86599 10.23107 67 ft 142 kts 189°
2026-04-28 19:52 36.85818 10.22895 37 ft 74 kts 192°
2026-04-28 19:52 36.85536 10.22822 37 ft 26 kts 192°
2026-04-28 19:52 36.85374 10.22774 37 ft 24 kts 193°
2026-04-28 19:52 36.85213 10.22728 37 ft 24 kts 192°
2026-04-28 19:53 36.85058 10.22687 37 ft 21 kts 204°
2026-04-28 19:53 36.85020 10.22588 37 ft 7 kts 295°